Regional Weather Roundup
Issued by NWS

Home | Current Version | Previous Version | Text Only | Print | Product List | Glossary On
Versions: 1 2 3 4 5 6 7 8 9 10 11 12 13 14 15 16 17 18 19 20 21 22 23 24 25 26 27 28 29 30 31 32 33 34 35 36 37 38 39 40 41 42 43 44 45 46 47 48 49 50
000
ASUS45 KTFX 290210
RWRMT
MONTANA REGIONAL WEATHER ROUNDUP
NATIONAL WEATHER SERVICE GREAT FALLS MT
800 PM MDT THU MAY 28 2015

NOTE: "FAIR" INDICATES FEW OR NO CLOUDS BELOW 12000 FEET WITH NO
SIGNIFICANT WEATHER AND/OR OBSTRUCTIONS TO VISIBILITY.

MTZ001>007-043-290300-
WEST OF THE DIVIDE

CITY           SKY/WX    TMP DP  RH WIND       PRES   REMARKS
KALISPELL      MOCLDY    63  42  46 NE18G25   30.16R
MISSOULA       PTSUNNY   62  50  64 NE8       30.16R
BUTTE          CLOUDY    52  44  74 E8        30.24R
MULLAN PASS    CLOUDY    50  46  86 CALM      30.24R
DEER LODGE       N/A     54  45  71 NE8       30.30R
EUREKA           N/A     64  46  52 NW7       30.18R
HAMILTON         N/A     61  46  59 S7        30.17R
LIBBY            N/A     55  54  94 CALM      30.20R
RONAN            N/A     65  54  67 MISG      30.18R
$$

MTZ008-052>055-290300-
SOUTHWEST MONTANA

CITY           SKY/WX    TMP DP  RH WIND       PRES   REMARKS
BOZEMAN        CLOUDY    52  49  89 S3        30.22R
DILLON         CLOUDY    55  46  71 NE9       30.21R
W YELLOWSTONE  MOCLDY    50  41  71 W5        30.22R
THREE FORKS      N/A     57  57 100 N6        30.19R
TWIN BRIDGES     N/A     54  47  77 NW7       30.17S
$$

MTZ009-010-012-014-046-048-049-054-290300-
EAST SLOPES AND CENTRAL MONTANA

CITY           SKY/WX    TMP DP  RH WIND       PRES   REMARKS
CUT BANK       CLOUDY    46  42  86 N13       30.30S FOG
GREAT FALLS    CLOUDY    48  46  93 N13       30.27R
MALMSTROM AFB  CLOUDY    48  46  93 N15       30.27R
HELENA         CLOUDY    52  45  77 NW12      30.26R
CONRAD           N/A     47  47 100 NW8       30.30R
$$

MTZ011-013-016-021-045-047-050-051-290300-
NORTH CENTRAL MONTANA

CITY           SKY/WX    TMP DP  RH WIND       PRES   REMARKS
HAVRE          CLOUDY    52  43  71 N9        30.26R
LEWISTOWN      CLOUDY    54  50  86 N10       30.21R
N BAR RANCH    CLOUDY    52  50  93 N12G17    30.21R
CHINOOK          N/A     54  45  71 N6        30.25R
FORT BENTON      N/A     52  45  76 NW13      30.27R
$$

MTZ017>020-022>027-061-062-290300-
NORTHEAST MONTANA

CITY           SKY/WX    TMP DP  RH WIND       PRES   REMARKS
GLASGOW        CLOUDY    55  47  74 N14G25    30.13R
JORDAN           N/A     57  55  93 N16       30.09R
SIDNEY         MOCLDY    63  50  63 NW20G25   30.02R
WOLF POINT     CLOUDY    57  47  69 N21G30    30.10R
MALTA            N/A     54  44  68 N15       30.15R
PLENTYWOOD       N/A     52  43  71 N30       30.08R
POPLAR           N/A     55  46  71 N23G32    30.08R
$$

MTZ028>42-056>058-290300-
SOUTHCENTRAL AND SOUTHEAST MONTANA

CITY           SKY/WX    TMP DP  RH WIND       PRES   REMARKS
BAKER          CLOUDY    63  54  72 N17       29.96R
BILLINGS       RAIN      55  51  86 NW10      30.14R
LIVINGSTON     LGT RAIN  51  46  83 SE13      30.20S
MILES CITY     CLOUDY    61  51  70 N26G39    30.01R
BIG TIMBER       N/A     52  48  87 SW3       30.22R
LAUREL           N/A     56  48  74 W1        30.13R
ROUNDUP          N/A     58  49  72 NW16      30.05R
$$

REGIONAL REPORTS...DAKOTAS

CITY           SKY/WX    TMP DP  RH WIND       PRES   REMARKS
WILLISTON      CLOUDY    60  48  64 N29G35    30.01R
MINOT          PTCLDY    65  54  67 NW9       29.91R
DICKINSON      CLOUDY    65  54  67 N9        29.91R
BEACH          FAIR      61  50  67 N22G32    29.99R
CROSBY         CLOUDY    52  50  93 N26G33    30.06R
WATFORD CITY   FAIR      59  54  82 N17G24    29.96R
BISMARCK       CLOUDY    71  54  54 N12       29.85F
GRAND FORKS    CLOUDY    67  61  81 SE3       29.78F
FARGO          CLOUDY    64  61  90 NW3       29.79R
BUFFALO SD       N/A     59  54  83 N8        29.91R
RAPID CITY     CLOUDY    59  53  80 N20       29.95F
$$

REGIONAL REPORTS...WYOMING/IDAHO/WASHINGTON

CITY           SKY/WX    TMP DP  RH WIND       PRES   REMARKS
GILLETTE       CLOUDY    54  49  83 NW10      30.05R
SHERIDAN       CLOUDY    57  49  74 W8        30.09R
BUFFALO WY     MOCLDY    53  44  71 NW14G24   30.11R
CODY           CLOUDY    54  45  71 N6        30.16R
YELLOWSTONE LA   N/A     44  40  85 CALM      30.26R
IDAHO FALLS    CLOUDY    60  47  61 NE7       30.16R
SALMON         CLOUDY    61  45  55 N7        30.15S
BOISE          SUNNY     76  41  28 W10       30.02S
SPOKANE        PTSUNNY   77  48  35 NE8       30.05R THUNDER
$$

REGIONAL REPORTS...ALBERTA

CITY           SKY/WX    TMP DP  RH WIND       PRES   REMARKS
EDMONTON       SUNNY     55  23  28 NE6       30.29S
CALGARY        CLOUDY    52  39  62 NE3       30.30R
LETHBRIDGE     CLOUDY    50  45  81 NE3       30.31S
MEDICINE HAT   MOSUNNY   55  37  50 N9        30.26R
$$

REGIONAL REPORTS...SASKATCHEWAN

CITY           SKY/WX    TMP DP  RH WIND       PRES   REMARKS
SWIFT CURRENT  CLEAR     52  28  40 NE15      30.21R
SASKATOON      PTCLDY    50  28  43 N13G20    30.26R
$$



USA.gov is the U.S. government's official web portal to all federal, state and local government web resources and services.